[[{"header":{"parameterUnit":"m.s-1","parameterCategory":1,"la1":30.2991,"la2":30.254,"lo1":-89.0895,"lo2":-89.0444,"dy":0.0017,"dx":0.0017,"nx":28,"ny":28,"refTime":"2024-12-25T03:00:00:Z","depth":0,"parameterNumber":2,"parameterNumberName":"U-component_of_WINDS"},"data":[0,0,0,0,0,0,0,0,0,0,0,0,0,0,0,0,0,0,0,0,0,0,0,0,0,0,0,0,0,0,0,0,0,0,0,0,0,0,0,0,0,0,0,0,0,0,0,0,0,0,0,0,0,0,0,0,0,0,-2.062,-2.0621,0,-2.0672,-2.0673,-2.0674,-2.0642,-2.0641,-2.0639,-2.0638,-2.0691,-2.0694,-2.0697,0,0,0,0,0,0,0,0,0,0,0,0,0,-2.0495,-2.0498,-2.062,-2.0621,-2.0621,-2.0672,-2.0673,-2.0674,-2.0642,-2.0641,-2.0639,-2.0637,-2.0691,-2.0694,-2.0697,0,0,0,0,0,0,0,0,0,0,0,0,0,-2.0549,-2.0499,-2.062,-2.0612,-2.0612,-2.0672,-2.0673,-2.0674,-2.0643,-2.0641,-2.0638,-2.0636,-2.0689,-2.0694,-2.0698,-2.0769,0,0,-2.0711,-2.0713,0,0,0,0,0,0,0,0,-2.0546,-2.0553,-2.0613,-2.0613,-2.0613,-2.0648,-2.0649,-2.0706,-2.0643,-2.0631,-2.0638,-2.0635,-2.0679,-2.0684,-2.0699,-2.0771,-2.0774,-2.0711,-2.0714,-2.0715,-2.0717,0,0,0,0,0,0,0,-2.0542,-2.0551,-2.0641,-2.0613,-2.0613,-2.0606,-2.0612,-2.0659,-2.0667,-2.0632,-2.063,-2.0636,-2.0679,-2.0695,-2.07,-2.0775,-2.0711,-2.0715,-2.0717,-2.0719,-2.0911,-2.0914,0,0,0,0,0,0,-2.0539,-2.0548,-2.0639,-2.0642,-2.0573,-2.0611,-2.0616,-2.0639,-2.0666,-2.0668,-2.0638,-2.0635,-2.0689,-2.0695,-2.0701,-2.0789,-2.0715,-2.0719,-2.0722,-2.0909,-2.0912,-2.0915,0,0,0,0,0,0,-2.0536,-2.0547,-2.0637,-2.0595,-2.0606,-2.0615,-2.0641,-2.0641,-2.0657,-2.0671,-2.0673,-2.0653,-2.0687,-2.0696,-2.0753,-2.079,-2.0721,-2.0725,-2.0906,-2.091,-2.0913,-2.0962,0,0,0,0,0,0,-2.0533,-2.0547,-2.0573,-2.0596,-2.0608,-2.0687,-2.0643,-2.0644,-2.0665,-2.0661,-2.0686,-2.0688,-2.0686,-2.0747,-2.0757,-2.0795,-2.0728,-2.0903,-2.0908,-2.0912,-2.0957,-2.0967,-2.0976,0,0,0,0,0,-2.0529,-2.0584,-2.0575,-2.0586,-2.0641,-2.0689,-2.0697,-2.0693,-2.0668,-2.0695,-2.0705,-2.0687,-2.0784,-2.0753,-2.0764,-2.0804,-2.09,-2.0906,-2.0912,-2.0953,-2.0965,-2.0975,0,0,0,0,0,0,-2.0565,-2.0587,-2.0576,-2.0641,-2.0664,-2.0684,-2.0718,-2.0706,-2.0736,-2.0731,-2.0726,-2.0732,-2.0793,-2.0804,-2.0769,-2.0875,-2.0838,-2.0847,-2.0866,-2.0877,-2.0886,-2.0883,-2.0732,0,0,0,0,0,-2.0581,-2.0618,-2.0635,-2.069,-2.0702,-2.0708,-2.0729,-2.0725,-2.0748,-2.0758,-2.0771,-2.0795,-2.0831,-2.0855,-2.0888,-2.0959,-2.0965,-2.0992,-2.1001,-2.1008,-2.1016,-2.1056,-2.1069,-2.0934,-2.0934,-2.0934,0,0,-2.0613,-2.063,-2.0653,-2.0698,-2.0715,-2.0754,-2.0717,-2.0759,-2.0788,-2.0764,-2.082,-2.0831,-2.0857,-2.0922,-2.0951,-2.0933,-2.1054,-2.1016,-2.1021,-2.1025,-2.1063,-2.1076,-2.1088,-2.0938,-2.0937,-2.0936,0,0,-2.0693,-2.0708,-2.0757,-2.0776,-2.0803,-2.0807,-2.0819,-2.0842,-2.0848,-2.0904,-2.0887,-2.0923,-2.0984,-2.1004,-2.1023,-2.1113,-2.1099,-2.1124,-2.1172,-2.1212,-2.1222,-2.1232,-2.1266,-2.1278,-2.1131,-2.1132,-2.1132,0,-2.073,-2.0788,-2.0784,-2.0829,-2.085,-2.083,-2.0881,-2.0899,-2.0935,-2.0951,-2.093,-2.1009,-2.1025,-2.1095,-2.1118,-2.1133,-2.1147,-2.1121,-2.1221,-2.1231,-2.1239,-2.1272,-2.1284,-2.1135,-2.1134,-2.1134,-2.1134,0,-2.0833,-2.0874,-2.091,-2.0947,-2.0972,-2.1019,-2.1024,-2.105,-2.1044,-2.1051,-2.1109,-2.1128,-2.1167,-2.1183,-2.1178,-2.1254,-2.1242,-2.1221,-2.1184,-2.1255,-2.1286,-2.1298,-2.1139,-2.1138,-2.1137,-2.1136,0,0,-2.0936,-2.0972,-2.0985,-2.1003,-2.1032,-2.1064,-2.1111,-2.1149,-2.1173,-2.1199,-2.124,-2.1294,-2.1275,-2.1296,-2.1293,-2.1328,-2.1401,-2.1303,-2.1304,-2.1322,-2.1488,-2.1505,-2.1519,-2.1391,-2.1394,-2.1395,-2.1487,0,-2.1019,-2.1101,-2.11,-2.1177,-2.1216,-2.1199,-2.1241,-2.1264,-2.1272,-2.1307,-2.1316,-2.1355,-2.1327,-2.134,-2.1374,-2.1385,-2.1434,-2.1378,-2.143,-2.1432,-2.1425,-2.1535,-2.1551,-2.1637,-2.1499,-2.1501,-2.1502,0,-2.1126,-2.1157,-2.1238,-2.1264,-2.128,-2.1317,-2.1354,-2.1386,-2.1413,-2.1417,-2.1442,-2.1434,-2.1484,-2.1445,-2.1514,-2.1476,-2.1498,-2.1507,-2.151,-2.1515,-2.1472,-2.1544,-2.1663,-2.1677,-2.152,-2.1519,-2.1518,0,-2.1195,-2.1257,-2.1314,-2.1329,-2.136,-2.1387,-2.1402,-2.1426,-2.145,-2.1482,-2.1498,-2.1535,-2.1556,-2.1585,-2.1588,-2.1559,-2.1659,-2.162,-2.1664,-2.1665,-2.1686,-2.1685,-2.1812,-2.1698,-2.1698,-2.1698,-2.1698,0,-2.1288,-2.1338,-2.1346,-2.1381,-2.1438,-2.1437,-2.1493,-2.1505,-2.1528,-2.1566,-2.1554,-2.159,-2.1591,-2.1629,-2.1632,-2.169,-2.1699,-2.1704,-2.1705,-2.1706,-2.1706,-2.1721,-2.1715,-2.1701,-2.1701,-2.17,-2.1699,0,-2.1374,-2.1381,-2.1443,-2.1468,-2.1476,-2.1517,-2.1539,-2.1573,-2.1581,-2.163,-2.1641,-2.1654,-2.1697,-2.1703,-2.1754,-2.1756,-2.1827,-2.182,-2.1818,-2.1817,-2.1863,-2.1859,-2.2004,-2.2024,-2.1896,-2.1898,-2.1899,0,-2.1434,-2.1472,-2.1502,-2.1527,-2.1544,-2.1583,-2.1608,-2.1609,-2.1636,-2.1671,-2.1702,-2.1744,-2.1778,-2.185,-2.1864,-2.1903,-2.1899,-2.1947,-2.1904,-2.1906,-2.1901,-2.19,-2.1904,-2.1955,-2.1957,-2.1958,-2.1959,0,-2.1539,-2.1541,-2.1577,-2.1615,-2.1645,-2.1675,-2.1704,-2.1725,-2.173,-2.1761,-2.1806,-2.1832,-2.1886,-2.1929,-2.1969,-2.1984,-2.1973,-2.1972,-2.1985,-2.1987,-2.1985,-2.1989,-2.1842,-2.1969,-2.1968,-2.1967,-2.1966,-2.1966,-2.1615,-2.1649,-2.1677,-2.1718,-2.174,-2.1767,-2.1801,-2.1814,-2.1852,-2.1895,-2.1894,-2.1944,-2.1972,-2.2024,-2.2043,-2.2083,-2.2067,-2.2085,-2.209,-2.2095,-2.2101,-2.1978,-2.209,-2.209,-2.209,-2.2089,-2.2089,0,-2.1721,-2.1738,-2.1776,-2.1817,-2.185,-2.1837,-2.1868,-2.1897,-2.1941,-2.1968,-2.2003,-2.2056,-2.2099,-2.2117,-2.2159,-2.2188,-2.2184,-2.2199,-2.2198,-2.2202,-2.2111,-2.2097,-2.2202,-2.2202,-2.2202,-2.2202,-2.2202,-2.2202,-2.178,-2.1839,-2.1844,-2.1915,-2.1932,-2.1981,-2.2,-2.2026,-2.2048,-2.2108,-2.2144,-2.2155,-2.218,-2.2224,-2.2263,-2.2268,-2.2284,-2.2302,-2.2305,-2.2219,-2.2208,-2.2197,-2.2184,-2.2305,-2.2306,-2.2392,-2.2393,-2.2394]},{"header":{"parameterUnit":"m.s-1","parameterCategory":1,"la1":30.2991,"la2":30.254,"lo1":-89.0895,"lo2":-89.0444,"dy":0.0017,"dx":0.0017,"nx":28,"ny":28,"refTime":"2024-12-25T03:00:00:Z","depth":0,"parameterNumber":3,"parameterNumberName":"V-component_of_WINDS"},"data":[0,0,0,0,0,0,0,0,0,0,0,0,0,0,0,0,0,0,0,0,0,0,0,0,0,0,0,0,0,0,0,0,0,0,0,0,0,0,0,0,0,0,0,0,0,0,0,0,0,0,0,0,0,0,0,0,0,0,-1.1674,-1.1674,0,-1.1685,-1.1685,-1.1685,-1.1657,-1.1656,-1.1655,-1.1654,-1.1666,-1.1667,-1.1668,0,0,0,0,0,0,0,0,0,0,0,0,0,-1.1629,-1.163,-1.1674,-1.1674,-1.1674,-1.1685,-1.1685,-1.1685,-1.1657,-1.1656,-1.1655,-1.1654,-1.1665,-1.1667,-1.1668,0,0,0,0,0,0,0,0,0,0,0,0,0,-1.1645,-1.163,-1.1674,-1.1661,-1.166,-1.1685,-1.1685,-1.1685,-1.1657,-1.1656,-1.1654,-1.1653,-1.1665,-1.1667,-1.1668,-1.1705,0,0,-1.1673,-1.1674,0,0,0,0,0,0,0,0,-1.1644,-1.1646,-1.1663,-1.1662,-1.1661,-1.1668,-1.1673,-1.1692,-1.1657,-1.1658,-1.1654,-1.1653,-1.1668,-1.1669,-1.1674,-1.1706,-1.1706,-1.1674,-1.1675,-1.1675,-1.1676,0,0,0,0,0,0,0,-1.1643,-1.1646,-1.1678,-1.1663,-1.1662,-1.1655,-1.1656,-1.1676,-1.167,-1.1658,-1.1656,-1.1658,-1.1667,-1.1672,-1.1674,-1.1706,-1.1674,-1.1675,-1.1676,-1.1677,-1.1767,-1.1768,0,0,0,0,0,0,-1.1643,-1.1645,-1.1678,-1.1678,-1.1649,-1.1657,-1.1658,-1.1667,-1.167,-1.1669,-1.1659,-1.1656,-1.167,-1.1672,-1.1674,-1.1717,-1.1675,-1.1677,-1.1678,-1.1766,-1.1767,-1.1769,0,0,0,0,0,0,-1.1642,-1.1647,-1.1677,-1.1661,-1.1665,-1.1659,-1.167,-1.1668,-1.1674,-1.167,-1.1669,-1.1666,-1.1669,-1.1672,-1.1697,-1.1717,-1.1678,-1.1679,-1.1764,-1.1766,-1.1768,-1.1803,0,0,0,0,0,0,-1.1641,-1.1646,-1.1661,-1.1662,-1.1666,-1.1701,-1.1671,-1.1669,-1.1676,-1.1673,-1.1677,-1.1676,-1.1668,-1.1695,-1.1699,-1.1718,-1.1681,-1.1762,-1.1765,-1.1767,-1.18,-1.1806,-1.1811,0,0,0,0,0,-1.164,-1.1671,-1.1662,-1.1666,-1.1683,-1.1702,-1.1704,-1.1694,-1.1678,-1.1692,-1.169,-1.1676,-1.1714,-1.1698,-1.1702,-1.1722,-1.1761,-1.1764,-1.1767,-1.1797,-1.1804,-1.181,0,0,0,0,0,0,-1.1673,-1.1671,-1.1661,-1.1693,-1.1697,-1.1697,-1.1715,-1.1703,-1.1713,-1.1709,-1.1697,-1.1698,-1.1725,-1.1726,-1.1708,-1.1757,-1.1735,-1.1739,-1.1756,-1.1763,-1.1768,-1.1767,-1.1682,0,0,0,0,0,-1.1684,-1.1699,-1.1696,-1.1724,-1.1727,-1.172,-1.1728,-1.172,-1.1725,-1.1727,-1.1727,-1.1732,-1.1745,-1.1754,-1.1765,-1.1799,-1.1799,-1.1815,-1.1821,-1.1825,-1.1829,-1.1846,-1.1853,-1.1779,-1.1779,-1.1779,0,0,-1.1707,-1.1707,-1.1718,-1.1731,-1.1734,-1.1749,-1.1723,-1.1741,-1.1752,-1.173,-1.1753,-1.1753,-1.1758,-1.1787,-1.18,-1.1789,-1.1849,-1.1829,-1.1833,-1.1834,-1.185,-1.1857,-1.1863,-1.1781,-1.1781,-1.178,0,0,-1.1756,-1.1759,-1.1782,-1.1785,-1.1789,-1.1784,-1.1789,-1.179,-1.1789,-1.1812,-1.1796,-1.1809,-1.1832,-1.1835,-1.184,-1.1889,-1.1876,-1.1893,-1.1922,-1.1938,-1.1944,-1.1949,-1.1966,-1.1973,-1.1897,-1.1897,-1.1897,0,-1.1785,-1.1808,-1.1796,-1.1814,-1.182,-1.18,-1.1823,-1.1826,-1.1834,-1.1839,-1.1826,-1.1853,-1.1855,-1.1884,-1.1896,-1.1901,-1.1906,-1.1893,-1.1944,-1.1949,-1.1954,-1.197,-1.1976,-1.1899,-1.1899,-1.1898,-1.1898,0,-1.1841,-1.1857,-1.1876,-1.1883,-1.1891,-1.1912,-1.1902,-1.1912,-1.1902,-1.1899,-1.1922,-1.1923,-1.1934,-1.194,-1.1932,-1.1968,-1.1961,-1.1946,-1.1923,-1.1963,-1.1978,-1.1984,-1.1902,-1.1901,-1.19,-1.19,0,0,-1.1914,-1.1913,-1.192,-1.1922,-1.1924,-1.1936,-1.1955,-1.1966,-1.1974,-1.1979,-1.1995,-1.2014,-1.1999,-1.2005,-1.1997,-1.2011,-1.2049,-1.1994,-1.1994,-1.2004,-1.2088,-1.2099,-1.2107,-1.204,-1.2041,-1.2042,-1.2087,0,-1.1963,-1.1996,-1.1985,-1.2018,-1.2032,-1.2011,-1.2028,-1.2031,-1.2027,-1.2038,-1.2034,-1.2048,-1.2028,-1.2031,-1.2045,-1.2041,-1.2065,-1.2038,-1.2054,-1.2055,-1.2054,-1.2114,-1.2127,-1.217,-1.2093,-1.2094,-1.2095,0,-1.2025,-1.2032,-1.2066,-1.2064,-1.207,-1.2085,-1.2092,-1.2103,-1.2106,-1.2102,-1.2107,-1.2095,-1.2113,-1.209,-1.2114,-1.2096,-1.2101,-1.2101,-1.2102,-1.2104,-1.2078,-1.2118,-1.2184,-1.219,-1.2104,-1.2103,-1.2103,0,-1.2074,-1.2092,-1.2114,-1.2117,-1.2116,-1.2126,-1.2126,-1.2127,-1.2133,-1.214,-1.2144,-1.2152,-1.2157,-1.2164,-1.2155,-1.2138,-1.2181,-1.2156,-1.2178,-1.2178,-1.2189,-1.2188,-1.2257,-1.2192,-1.2192,-1.2191,-1.2191,0,-1.213,-1.2152,-1.2136,-1.215,-1.2174,-1.216,-1.2184,-1.2181,-1.2182,-1.2195,-1.2177,-1.219,-1.2176,-1.2187,-1.218,-1.2201,-1.2203,-1.2201,-1.2199,-1.2203,-1.2203,-1.2207,-1.2204,-1.2193,-1.2193,-1.2192,-1.2192,0,-1.2189,-1.218,-1.2203,-1.2199,-1.2198,-1.2216,-1.2212,-1.2224,-1.2219,-1.2235,-1.2238,-1.2229,-1.2241,-1.2232,-1.2244,-1.2239,-1.2267,-1.226,-1.2266,-1.2264,-1.2287,-1.2285,-1.236,-1.2369,-1.2298,-1.2299,-1.23,0,-1.2226,-1.2242,-1.2239,-1.2246,-1.2246,-1.2258,-1.2264,-1.225,-1.2257,-1.226,-1.2272,-1.2282,-1.229,-1.231,-1.2304,-1.2313,-1.2307,-1.2333,-1.2308,-1.2311,-1.2307,-1.2307,-1.2308,-1.2338,-1.2339,-1.2339,-1.234,0,-1.2292,-1.2286,-1.2294,-1.2301,-1.2308,-1.2313,-1.2317,-1.2324,-1.231,-1.2318,-1.2329,-1.2335,-1.2346,-1.2357,-1.2363,-1.2363,-1.2349,-1.2347,-1.2353,-1.2358,-1.236,-1.2359,-1.228,-1.2346,-1.2345,-1.2345,-1.2345,-1.2344,-1.2341,-1.2354,-1.2353,-1.2363,-1.2364,-1.2367,-1.2378,-1.2373,-1.2382,-1.239,-1.2381,-1.2395,-1.2395,-1.2403,-1.2404,-1.2414,-1.2404,-1.2412,-1.2414,-1.2416,-1.2419,-1.2358,-1.2415,-1.2415,-1.2415,-1.2415,-1.2415,0,-1.2406,-1.2404,-1.2413,-1.2418,-1.2425,-1.241,-1.2413,-1.242,-1.2432,-1.2434,-1.2441,-1.2453,-1.2463,-1.2457,-1.2465,-1.2475,-1.2469,-1.2477,-1.2477,-1.2477,-1.2428,-1.2423,-1.2482,-1.2482,-1.2482,-1.2482,-1.2482,-1.2482,-1.244,-1.2461,-1.2454,-1.2475,-1.2473,-1.2486,-1.2488,-1.2491,-1.2492,-1.2506,-1.2513,-1.2509,-1.2508,-1.2515,-1.2523,-1.2521,-1.2525,-1.2536,-1.2532,-1.2487,-1.2481,-1.2474,-1.2469,-1.2537,-1.2537,-1.258,-1.258,-1.2581]}]]